[[{"header":{"parameterUnit":"m.s-1","parameterCategory":2,"la1":30.2991,"la2":30.254,"lo1":-89.0895,"lo2":-89.0444,"dy":0.0017,"dx":0.0017,"nx":28,"ny":28,"refTime":"2024-02-18T03:00:00:Z","depth":"0","parameterNumber":2,"parameterNumberName":"U-component_of_CURRENTS"},"data":[0,0,0,0,0,0,0,0,0,0,0,0,0,0,0,0,0,0,0,0,0,0,0,0,0,0,0,0,0,0,0,0,0,0,0,0,0,0,0,0,0,0,0,0,0,0,0,0,0,0,0,0,0,0,0,0,0,0,0.3216,0.3216,0,0.3223,0.3223,0.3223,0.3202,0.3202,0.3202,0.3201,0.318,0.318,0.318,0,0,0,0,0,0,0,0,0,0,0,0,0,0.3182,0.3182,0.3216,0.3216,0.3217,0.3223,0.3223,0.3223,0.3203,0.3202,0.3201,0.3201,0.318,0.318,0.318,0,0,0,0,0,0,0,0,0,0,0,0,0,0.3191,0.3182,0.3216,0.3209,0.3209,0.3223,0.3223,0.3223,0.3203,0.3202,0.3201,0.3201,0.3181,0.318,0.318,0.3191,0,0,0.3179,0.3179,0,0,0,0,0,0,0,0,0.3191,0.3192,0.321,0.3209,0.3209,0.3213,0.3204,0.3212,0.3203,0.3202,0.3201,0.32,0.3191,0.319,0.319,0.319,0.319,0.3179,0.3179,0.3179,0.3179,0,0,0,0,0,0,0,0.319,0.3192,0.3217,0.321,0.321,0.3205,0.3205,0.3205,0.3198,0.3202,0.3202,0.3206,0.319,0.319,0.3189,0.3189,0.3179,0.3179,0.3179,0.3179,0.3229,0.323,0,0,0,0,0,0,0.3195,0.3191,0.3216,0.3217,0.3201,0.3206,0.3206,0.3211,0.3198,0.3197,0.3207,0.3205,0.3191,0.3189,0.3188,0.3222,0.3179,0.3179,0.3179,0.3227,0.3229,0.3231,0,0,0,0,0,0,0.3194,0.3197,0.3216,0.3206,0.3208,0.3207,0.3212,0.3211,0.3216,0.3202,0.32,0.3213,0.319,0.3188,0.32,0.322,0.3179,0.3179,0.3226,0.3228,0.323,0.3275,0,0,0,0,0,0,0.3193,0.3197,0.3201,0.3206,0.3209,0.3233,0.3213,0.3212,0.3221,0.3219,0.3207,0.3204,0.3189,0.3201,0.32,0.3219,0.3178,0.3224,0.3227,0.3229,0.3272,0.3279,0.3285,0,0,0,0,0,0.3192,0.32,0.3201,0.3204,0.3215,0.3234,0.3235,0.323,0.3222,0.323,0.3225,0.3205,0.3217,0.3202,0.32,0.322,0.3222,0.3226,0.3229,0.3269,0.3277,0.3284,0,0,0,0,0,0,0.3183,0.3199,0.32,0.3211,0.3227,0.3232,0.3238,0.3238,0.3241,0.3238,0.3221,0.3218,0.3242,0.3227,0.321,0.3244,0.3218,0.3221,0.3249,0.3257,0.3263,0.3287,0.3178,0,0,0,0,0,0.3186,0.3198,0.3213,0.3224,0.3232,0.3238,0.3245,0.3246,0.3251,0.3251,0.3244,0.3242,0.3255,0.3251,0.326,0.3271,0.3284,0.3285,0.3291,0.3297,0.3318,0.3355,0.3366,0.3241,0.3241,0.3241,0,0,0.3182,0.3196,0.32,0.3224,0.3232,0.3249,0.324,0.3257,0.3277,0.3249,0.3267,0.3269,0.3267,0.3288,0.3295,0.3273,0.3341,0.3301,0.3305,0.3324,0.3359,0.3371,0.3382,0.3244,0.3243,0.3243,0,0,0.3187,0.3199,0.3211,0.3229,0.3253,0.3262,0.3271,0.3284,0.3296,0.3313,0.3311,0.333,0.3324,0.3341,0.3345,0.3393,0.3382,0.3387,0.3426,0.3461,0.3472,0.3481,0.3517,0.3529,0.3379,0.3379,0.3379,0,0.3182,0.3198,0.3218,0.3238,0.3254,0.327,0.3289,0.331,0.3326,0.3344,0.3323,0.3358,0.3356,0.3402,0.342,0.3409,0.3424,0.3392,0.347,0.3479,0.3488,0.3522,0.3535,0.3381,0.3381,0.3381,0.338,0,0.3196,0.321,0.3222,0.3253,0.3278,0.3297,0.3333,0.3358,0.3367,0.3382,0.3429,0.3433,0.3453,0.3456,0.345,0.3517,0.3507,0.3481,0.3449,0.3504,0.3536,0.3548,0.3385,0.3384,0.3383,0.3383,0,0,0.3167,0.3219,0.322,0.324,0.3287,0.3308,0.3359,0.3405,0.3447,0.3457,0.3506,0.3533,0.3539,0.3548,0.355,0.3579,0.3655,0.3558,0.3558,0.3591,0.3738,0.3712,0.3723,0.3636,0.3638,0.364,0.3735,0,0.3165,0.3202,0.3234,0.3269,0.329,0.3336,0.3384,0.3435,0.3477,0.3531,0.3555,0.3601,0.3573,0.3593,0.3621,0.3659,0.3691,0.3632,0.3682,0.3685,0.3653,0.3738,0.3596,0.3667,0.3748,0.375,0.3751,0,0.3152,0.3186,0.3215,0.3285,0.33,0.3327,0.3416,0.3465,0.3555,0.3595,0.3644,0.3668,0.3737,0.3695,0.3779,0.3741,0.3751,0.3765,0.3768,0.3741,0.3683,0.3626,0.3687,0.3604,0.3771,0.3769,0.3768,0,0.3108,0.3167,0.3191,0.321,0.3291,0.3322,0.3374,0.347,0.3526,0.3645,0.3685,0.3765,0.3805,0.384,0.3866,0.3832,0.395,0.3898,0.3885,0.3883,0.3773,0.3757,0.376,0.3959,0.3959,0.3959,0.3958,0,0.3079,0.3096,0.3169,0.3179,0.3227,0.3299,0.3362,0.3446,0.3553,0.3623,0.3707,0.378,0.3843,0.3903,0.3914,0.3953,0.3986,0.3928,0.3918,0.3785,0.377,0.3701,0.3663,0.3962,0.3962,0.3961,0.396,0,0.301,0.3053,0.3087,0.3172,0.3197,0.3233,0.3338,0.339,0.351,0.3609,0.3648,0.3804,0.3913,0.3958,0.4045,0.4012,0.395,0.4049,0.3895,0.3866,0.3763,0.3733,0.3611,0.3505,0.4062,0.4062,0.4062,0,0.2976,0.2982,0.3063,0.3078,0.3108,0.317,0.321,0.335,0.3411,0.362,0.3656,0.3817,0.391,0.4039,0.4049,0.4084,0.3957,0.3954,0.3865,0.3773,0.3733,0.3574,0.3481,0.3738,0.3735,0.3733,0.3731,0,0.2913,0.2936,0.2966,0.3003,0.3037,0.3084,0.3158,0.3201,0.3369,0.3453,0.3599,0.3704,0.3881,0.3892,0.3967,0.3966,0.3773,0.3913,0.3849,0.3527,0.332,0.3207,0.3666,0.3713,0.3715,0.3716,0.3717,0.3718,0.2856,0.2861,0.2892,0.2913,0.295,0.2976,0.2971,0.3064,0.3139,0.325,0.3452,0.355,0.3697,0.3804,0.3776,0.3679,0.3664,0.3576,0.3565,0.3426,0.3264,0.3699,0.3711,0.3713,0.3714,0.3716,0.3717,0,0.2775,0.2782,0.2801,0.2811,0.2791,0.2857,0.2904,0.2875,0.2896,0.3076,0.3173,0.3319,0.3365,0.3451,0.3461,0.335,0.3158,0.3268,0.3005,0.2945,0.3369,0.3297,0.3179,0.3179,0.3179,0.3179,0.3179,0.3179,0.273,0.2701,0.2705,0.2635,0.2635,0.2568,0.2563,0.2562,0.2638,0.2706,0.2793,0.2945,0.3188,0.3277,0.3194,0.3109,0.2867,0.2739,0.274,0.3052,0.3079,0.3104,0.3026,0.2854,0.2853,0.2165,0.216,0.2156]},{"header":{"parameterUnit":"m.s-1","parameterCategory":2,"la1":30.2991,"la2":30.254,"lo1":-89.0895,"lo2":-89.0444,"dy":0.0017,"dx":0.0017,"nx":28,"ny":28,"refTime":"2024-02-18T03:00:00:Z","depth":"0","parameterNumber":3,"parameterNumberName":"V-component_of_CURRENTS"},"data":[0,0,0,0,0,0,0,0,0,0,0,0,0,0,0,0,0,0,0,0,0,0,0,0,0,0,0,0,0,0,0,0,0,0,0,0,0,0,0,0,0,0,0,0,0,0,0,0,0,0,0,0,0,0,0,0,0,0,0.0065,0.0065,0,0.0015,0.0014,0.0013,-0.0025,-0.0026,-0.0026,-0.0026,-0.0093,-0.0094,-0.0096,0,0,0,0,0,0,0,0,0,0,0,0,0,0.0067,0.0067,0.0065,0.0065,0.0064,0.0015,0.0014,0.0013,-0.0025,-0.0026,-0.0026,-0.0026,-0.0092,-0.0094,-0.0096,0,0,0,0,0,0,0,0,0,0,0,0,0,0.0045,0.0068,0.0065,0.0041,0.0038,0.0015,0.0014,0.0013,-0.0025,-0.0026,-0.0026,-0.0026,-0.0092,-0.0094,-0.0096,-0.0107,0,0,-0.0104,-0.0105,0,0,0,0,0,0,0,0,0.0046,0.0044,0.0045,0.0042,0.004,0.0003,-0.001,-0.0027,-0.0025,-0.0004,-0.0026,-0.0026,-0.0061,-0.0066,-0.0078,-0.011,-0.0113,-0.0104,-0.0106,-0.0107,-0.0107,0,0,0,0,0,0,0,0.0048,0.0046,0.0043,0.0044,0.0041,0.0012,0.0009,-0.0014,-0.0032,-0.0006,-0.0008,-0.001,-0.0063,-0.0075,-0.0079,-0.0114,-0.0104,-0.0106,-0.0108,-0.0109,-0.0159,-0.0159,0,0,0,0,0,0,0.0062,0.0048,0.0044,0.0042,0.0045,0.0012,0.0009,0.0013,-0.0032,-0.0038,-0.0009,-0.0011,-0.0071,-0.0077,-0.0082,-0.008,-0.0107,-0.0109,-0.011,-0.0159,-0.0159,-0.0159,0,0,0,0,0,0,0.0062,0.0062,0.0047,0.0045,0.0041,0.0013,0.0018,0.0012,0.0004,-0.0034,-0.0041,-0.001,-0.0071,-0.0079,-0.0094,-0.0083,-0.011,-0.0112,-0.0159,-0.0159,-0.0159,-0.0087,0,0,0,0,0,0,0.0063,0.0063,0.007,0.0046,0.0042,0.0044,0.0018,0.0011,0.0004,0.0002,-0.0037,-0.0044,-0.0072,-0.009,-0.0097,-0.0087,-0.0114,-0.0159,-0.0159,-0.0159,-0.0089,-0.0084,-0.008,0,0,0,0,0,0.0063,0.0079,0.0071,0.007,0.0053,0.0045,0.004,0.0017,0.0005,0.0007,-0.002,-0.0043,-0.0094,-0.0092,-0.01,-0.0091,-0.0159,-0.0159,-0.0159,-0.0092,-0.0085,-0.008,0,0,0,0,0,0,0.0084,0.0076,0.0066,0.0079,0.0067,0.0039,0.004,0.0024,0.0003,0.0,-0.0038,-0.0047,-0.0059,-0.0085,-0.0083,-0.0106,-0.0131,-0.0132,-0.0078,-0.0072,-0.0068,-0.0042,-0.0116,0,0,0,0,0,0.0093,0.0103,0.0087,0.0097,0.0093,0.0067,0.006,0.0047,0.0026,0.0017,-0.001,-0.0041,-0.0065,-0.0075,-0.0103,-0.0111,-0.0141,-0.0112,-0.0107,-0.0103,-0.0088,-0.0127,-0.0124,-0.0157,-0.0157,-0.0157,0,0,0.0103,0.0101,0.0106,0.0102,0.0088,0.0094,0.0062,0.006,0.0068,0.0013,0.0012,-0.0025,-0.0064,-0.0076,-0.0084,-0.0094,-0.0111,-0.0103,-0.0098,-0.0086,-0.0126,-0.0123,-0.012,-0.0157,-0.0157,-0.0157,0,0,0.0136,0.0127,0.0148,0.0144,0.0135,0.0118,0.0122,0.01,0.0092,0.0083,0.0046,0.0021,-0.0017,-0.0039,-0.0057,-0.0042,-0.0086,-0.0056,-0.0006,-0.0044,-0.0042,-0.004,-0.0077,-0.0079,-0.0051,-0.0051,-0.0051,0,0.0147,0.0174,0.0152,0.0171,0.0175,0.0134,0.0157,0.0143,0.0119,0.0123,0.0093,0.0038,0.0003,-0.0006,-0.0003,-0.0028,-0.0059,-0.0022,-0.0037,-0.0035,-0.0034,-0.0073,-0.0076,-0.0047,-0.0048,-0.0048,-0.0048,0,0.0196,0.0215,0.0227,0.0238,0.0237,0.0249,0.023,0.023,0.0208,0.019,0.0174,0.0115,0.0087,0.0064,0.0035,0.0028,0.0001,-0.0027,-0.0046,-0.0026,-0.0069,-0.0073,-0.0042,-0.0044,-0.0045,-0.0045,0,0,0.0234,0.0258,0.0264,0.0288,0.0277,0.0288,0.0299,0.0305,0.0327,0.0276,0.0292,0.0231,0.0193,0.0171,0.0122,0.0087,0.006,0.0041,0.0037,0.0014,-0.0025,-0.0031,-0.0037,0.0028,0.0028,0.0027,-0.0058,0,0.0281,0.0337,0.0333,0.0384,0.0409,0.0387,0.0405,0.0403,0.0386,0.0388,0.032,0.0306,0.0236,0.0222,0.0175,0.0095,0.0052,0.0086,-0.0049,-0.0053,-0.0052,-0.004,0.0001,-0.007,-0.0063,-0.0063,-0.0064,0,0.0337,0.0369,0.0431,0.0472,0.0482,0.0505,0.0538,0.0553,0.0538,0.0522,0.0485,0.0425,0.0372,0.0301,0.0172,0.0196,0.0097,0.0021,0.0015,-0.0014,-0.0065,-0.009,-0.0079,-0.0255,-0.0071,-0.0071,-0.007,0,0.0388,0.0441,0.0498,0.0511,0.0544,0.0578,0.0594,0.0599,0.0634,0.0612,0.0619,0.053,0.0498,0.0361,0.0207,0.0187,0.0059,0.0008,-0.0095,-0.0098,-0.0099,-0.01,-0.0262,-0.0089,-0.0089,-0.0089,-0.0088,0,0.0447,0.0493,0.0534,0.0567,0.0648,0.0645,0.0724,0.0729,0.0747,0.0805,0.0696,0.0711,0.0512,0.0412,0.0247,0.0078,0.0086,-0.0077,-0.0115,-0.0074,-0.0072,-0.0255,-0.035,-0.0092,-0.0091,-0.009,-0.009,0,0.0503,0.0522,0.0595,0.065,0.0678,0.0739,0.0817,0.0874,0.0872,0.0943,0.094,0.0854,0.0727,0.0519,0.0309,0.0151,-0.0119,-0.0093,-0.0028,-0.0056,-0.0322,-0.0414,-0.0606,-0.0678,-0.0226,-0.0227,-0.0227,0,0.0536,0.058,0.0665,0.0719,0.0753,0.084,0.0906,0.0939,0.1011,0.1045,0.1091,0.0986,0.0946,0.0626,0.0332,0.0044,-0.0133,-0.012,-0.0156,-0.0323,-0.0454,-0.0527,-0.0578,-0.0139,-0.0139,-0.0139,-0.0139,0,0.0601,0.0631,0.0694,0.0804,0.0889,0.099,0.1091,0.1166,0.1224,0.1286,0.1351,0.1319,0.1022,0.0751,0.035,0.015,-0.0226,-0.0125,-0.0317,-0.0407,-0.0478,-0.0568,-0.0105,-0.0137,-0.0137,-0.0137,-0.0137,-0.0137,0.0652,0.0708,0.0791,0.0901,0.1001,0.1132,0.1228,0.1346,0.1482,0.1593,0.1558,0.1563,0.1155,0.0616,0.0311,-0.0214,-0.0239,-0.038,-0.048,-0.0542,-0.0601,-0.0128,-0.019,-0.019,-0.0191,-0.0191,-0.0192,0,0.0714,0.0778,0.0879,0.101,0.1129,0.1174,0.1348,0.146,0.1639,0.1751,0.1813,0.1647,0.114,0.0617,-0.0106,-0.0497,-0.0628,-0.0712,-0.0816,-0.0855,-0.0448,-0.0433,-0.0526,-0.0525,-0.0525,-0.0525,-0.0525,-0.0525,0.0746,0.0849,0.0901,0.1099,0.1196,0.1366,0.1472,0.1646,0.1776,0.1924,0.1958,0.1944,0.1554,0.0233,-0.0667,-0.0867,-0.1129,-0.1185,-0.1343,-0.1078,-0.1055,-0.1033,-0.1042,-0.1261,-0.1262,-0.1681,-0.1686,-0.1689]}],[{"header":{"parameterUnit":"m.s-1","parameterCategory":2,"la1":30.2991,"la2":30.254,"lo1":-89.0895,"lo2":-89.0444,"dy":0.0017,"dx":0.0017,"nx":28,"ny":28,"refTime":"2024-02-18T03:00:00:Z","depth":"2","parameterNumber":2,"parameterNumberName":"U-component_of_CURRENTS"},"data":[0,0,0,0,0,0,0,0,0,0,0,0,0,0,0,0,0,0,0,0,0,0,0,0,0,0,0,0,0,0,0,0,0,0,0,0,0,0,0,0,0,0,0,0,0,0,0,0,0,0,0,0,0,0,0,0,0,0,0.2899,0.29,0,0.2913,0.2913,0.2913,0.2905,0.2905,0.2905,0.2905,0.2902,0.2902,0.2902,0,0,0,0,0,0,0,0,0,0,0,0,0,0.286,0.2861,0.2899,0.29,0.29,0.2913,0.2913,0.2913,0.2906,0.2905,0.2905,0.2905,0.2902,0.2902,0.2902,0,0,0,0,0,0,0,0,0,0,0,0,0,0.2874,0.2861,0.2899,0.2899,0.29,0.2913,0.2913,0.2913,0.2906,0.2905,0.2905,0.2905,0.2902,0.2902,0.2902,0.2908,0,0,0.2902,0.2902,0,0,0,0,0,0,0,0,0.2873,0.2875,0.2899,0.29,0.29,0.2909,0.2898,0.2911,0.2906,0.2901,0.2905,0.2905,0.2904,0.2904,0.2904,0.2907,0.2907,0.2902,0.2902,0.2902,0.2902,0,0,0,0,0,0,0,0.2872,0.2874,0.2902,0.29,0.29,0.2897,0.2898,0.29,0.2902,0.2901,0.2902,0.2907,0.2904,0.2904,0.2904,0.2907,0.2902,0.2902,0.2902,0.2902,0.2963,0.2964,0,0,0,0,0,0,0.2875,0.2873,0.2902,0.2903,0.2888,0.2898,0.2899,0.2905,0.2902,0.2902,0.2907,0.2906,0.2904,0.2904,0.2904,0.2948,0.2902,0.2902,0.2902,0.2961,0.2963,0.2965,0,0,0,0,0,0,0.2874,0.2878,0.2902,0.289,0.2893,0.2899,0.2905,0.2905,0.2917,0.2907,0.2906,0.292,0.2904,0.2904,0.2922,0.2947,0.2902,0.2902,0.2959,0.2962,0.2964,0.3013,0,0,0,0,0,0,0.2873,0.2877,0.2885,0.289,0.2894,0.2921,0.2905,0.2906,0.2921,0.292,0.2918,0.2917,0.2904,0.2923,0.2923,0.2946,0.2903,0.2957,0.296,0.2963,0.3009,0.3017,0.3023,0,0,0,0,0,0.2872,0.2881,0.2885,0.2889,0.2903,0.2922,0.2924,0.2925,0.2922,0.2933,0.2934,0.2917,0.2941,0.2924,0.2924,0.2948,0.2956,0.2959,0.2963,0.3006,0.3015,0.3023,0,0,0,0,0,0,0.2866,0.2882,0.2886,0.29,0.2916,0.2922,0.2932,0.2935,0.2945,0.2947,0.2933,0.2933,0.2964,0.2951,0.2932,0.2976,0.2947,0.2951,0.2981,0.2989,0.2995,0.3016,0.2903,0,0,0,0,0,0.287,0.2883,0.2899,0.2912,0.2922,0.2931,0.294,0.2945,0.2953,0.2957,0.2957,0.2961,0.2977,0.2978,0.2988,0.3005,0.3015,0.3023,0.3029,0.3035,0.3054,0.3087,0.3098,0.2976,0.2976,0.2976,0,0,0.2869,0.2883,0.2889,0.2913,0.2924,0.2942,0.2936,0.2957,0.2979,0.2956,0.2984,0.2989,0.299,0.3016,0.3027,0.3006,0.3077,0.304,0.3044,0.306,0.3092,0.3104,0.3114,0.2978,0.2978,0.2977,0,0,0.2877,0.2892,0.2905,0.2923,0.295,0.296,0.2971,0.2988,0.3005,0.3027,0.3029,0.3053,0.3056,0.3073,0.3078,0.3129,0.3119,0.3129,0.3169,0.3201,0.3211,0.322,0.3252,0.3264,0.3122,0.3122,0.3122,0,0.2877,0.2894,0.2913,0.2934,0.2951,0.297,0.2991,0.3014,0.3037,0.3057,0.3042,0.3086,0.3087,0.3133,0.3155,0.3146,0.316,0.3134,0.321,0.3219,0.3227,0.3258,0.327,0.3125,0.3125,0.3124,0.3124,0,0.2892,0.291,0.2923,0.2955,0.298,0.3002,0.3038,0.3068,0.3083,0.31,0.3152,0.3161,0.3185,0.3192,0.3188,0.3255,0.3246,0.322,0.3187,0.3243,0.3271,0.3283,0.3129,0.3128,0.3127,0.3126,0,0,0.2871,0.2922,0.2924,0.2945,0.2993,0.3014,0.3066,0.3114,0.3157,0.3176,0.3227,0.326,0.327,0.3281,0.3286,0.3315,0.339,0.3298,0.3298,0.3327,0.3467,0.3427,0.3436,0.3373,0.3376,0.3377,0.3464,0,0.2873,0.2911,0.294,0.2979,0.3001,0.3047,0.3095,0.3147,0.3191,0.3248,0.3275,0.3326,0.3303,0.3329,0.3355,0.3393,0.3423,0.337,0.3412,0.3414,0.3369,0.3449,0.3164,0.3215,0.3475,0.3477,0.3479,0,0.2866,0.2898,0.2931,0.2998,0.3013,0.3043,0.3131,0.318,0.327,0.3312,0.3364,0.3391,0.3462,0.3425,0.3505,0.3471,0.3482,0.3495,0.3497,0.3454,0.3397,0.3201,0.3226,0.3498,0.3497,0.3495,0.3494,0,0.2828,0.2887,0.2913,0.2932,0.301,0.3044,0.3096,0.319,0.3246,0.3365,0.3407,0.3485,0.3529,0.3562,0.3587,0.3558,0.3664,0.3617,0.359,0.3587,0.3352,0.3324,0.3674,0.3673,0.3673,0.3673,0.3673,0,0.2805,0.2825,0.2896,0.2908,0.2959,0.3028,0.3095,0.3175,0.3281,0.3348,0.3433,0.3501,0.3566,0.3621,0.3631,0.3658,0.3696,0.3629,0.3617,0.3362,0.3336,0.3579,0.3567,0.3676,0.3676,0.3675,0.3674,0,0.2746,0.2788,0.2824,0.2907,0.2934,0.2973,0.3079,0.3129,0.3249,0.3344,0.3385,0.3529,0.3624,0.3668,0.3746,0.371,0.3744,0.3734,0.3439,0.3392,0.3634,0.3624,0.3729,0.3728,0.3728,0.3727,0.3727,0,0.2716,0.2725,0.2805,0.2823,0.2856,0.2922,0.2963,0.3098,0.3155,0.3351,0.3384,0.3533,0.3605,0.3713,0.3702,0.3724,0.3766,0.3463,0.3359,0.3668,0.3646,0.3636,0.3626,0.3063,0.3057,0.3053,0.3049,0,0.2661,0.2687,0.2715,0.2756,0.2794,0.2839,0.2913,0.2953,0.3111,0.3194,0.332,0.3406,0.3539,0.3455,0.3509,0.3479,0.3441,0.3373,0.3768,0.3105,0.305,0.3025,0.3035,0.3007,0.3012,0.3015,0.3017,0.3019,0.2612,0.2617,0.2649,0.2675,0.2714,0.2734,0.273,0.2813,0.2883,0.2976,0.3152,0.3178,0.3242,0.3193,0.3107,0.3044,0.3286,0.312,0.3129,0.3144,0.3064,0.3012,0.2948,0.2951,0.2955,0.2957,0.296,0,0.2537,0.2545,0.2565,0.2578,0.256,0.2628,0.2666,0.2629,0.2644,0.2776,0.2848,0.2666,0.2642,0.2694,0.2543,0.2566,0.2488,0.2453,0.231,0.2357,0.2397,0.2271,0.1949,0.1945,0.1941,0.1938,0,0,0.2496,0.2469,0.247,0.2407,0.2414,0.2352,0.2344,0.2324,0.2361,0.2343,0.2338,0.2545,0.264,0.2254,0.2222,0.2052,0.2176,0.1973,0.2797,0.2678,0.2712,0.2812,0.2678,0,0,0,0,0]},{"header":{"parameterUnit":"m.s-1","parameterCategory":2,"la1":30.2991,"la2":30.254,"lo1":-89.0895,"lo2":-89.0444,"dy":0.0017,"dx":0.0017,"nx":28,"ny":28,"refTime":"2024-02-18T03:00:00:Z","depth":"2","parameterNumber":3,"parameterNumberName":"V-component_of_CURRENTS"},"data":[0,0,0,0,0,0,0,0,0,0,0,0,0,0,0,0,0,0,0,0,0,0,0,0,0,0,0,0,0,0,0,0,0,0,0,0,0,0,0,0,0,0,0,0,0,0,0,0,0,0,0,0,0,0,0,0,0,0,0.0216,0.0215,0,0.017,0.017,0.0169,0.0133,0.0132,0.0132,0.0132,0.007,0.0069,0.0068,0,0,0,0,0,0,0,0,0,0,0,0,0,0.0216,0.0217,0.0216,0.0215,0.0215,0.017,0.017,0.0169,0.0133,0.0132,0.0132,0.0132,0.0071,0.0069,0.0067,0,0,0,0,0,0,0,0,0,0,0,0,0,0.0196,0.0217,0.0216,0.0193,0.019,0.0171,0.017,0.0169,0.0133,0.0132,0.0132,0.0132,0.0071,0.0069,0.0067,0.006,0,0,0.006,0.006,0,0,0,0,0,0,0,0,0.0198,0.0196,0.0197,0.0194,0.0192,0.0158,0.0147,0.0132,0.0133,0.0153,0.0132,0.0132,0.01,0.0095,0.0085,0.0057,0.0054,0.006,0.0059,0.0058,0.0057,0,0,0,0,0,0,0,0.0199,0.0198,0.0196,0.0196,0.0193,0.0166,0.0163,0.0144,0.0127,0.0151,0.0149,0.0147,0.0098,0.0087,0.0083,0.0053,0.006,0.0058,0.0057,0.0056,0.0011,0.0011,0,0,0,0,0,0,0.0212,0.0199,0.0197,0.0195,0.0196,0.0167,0.0163,0.0168,0.0127,0.0121,0.0147,0.0145,0.0091,0.0086,0.0081,0.0081,0.0058,0.0056,0.0055,0.0011,0.0011,0.0011,0,0,0,0,0,0,0.0212,0.0212,0.0199,0.0197,0.0194,0.0168,0.0173,0.0167,0.0159,0.0125,0.0118,0.0145,0.0091,0.0084,0.0069,0.0078,0.0055,0.0053,0.001,0.0011,0.0011,0.0074,0,0,0,0,0,0,0.0212,0.0213,0.0219,0.0198,0.0194,0.0196,0.0173,0.0167,0.0159,0.0156,0.0121,0.0114,0.009,0.0073,0.0067,0.0075,0.0051,0.001,0.001,0.0011,0.0072,0.0076,0.008,0,0,0,0,0,0.0213,0.0228,0.022,0.0219,0.0205,0.0197,0.0193,0.0171,0.0159,0.0161,0.0136,0.0116,0.007,0.0071,0.0065,0.0072,0.001,0.001,0.0011,0.007,0.0075,0.008,0,0,0,0,0,0,0.0232,0.0225,0.0216,0.0228,0.0217,0.0192,0.0192,0.0177,0.0158,0.0154,0.012,0.0112,0.01,0.0077,0.0079,0.0057,0.0035,0.0034,0.0082,0.0087,0.0091,0.0115,0.005,0,0,0,0,0,0.024,0.025,0.0235,0.0244,0.024,0.0216,0.021,0.0197,0.0178,0.0169,0.0144,0.0116,0.0095,0.0085,0.0061,0.0053,0.0024,0.0051,0.0055,0.0059,0.0073,0.0033,0.0035,0.0011,0.0011,0.0011,0,0,0.0249,0.0247,0.0252,0.0249,0.0236,0.0241,0.0211,0.0208,0.0215,0.0166,0.0164,0.0131,0.0096,0.0085,0.0078,0.0068,0.0049,0.0059,0.0063,0.0075,0.0034,0.0036,0.0038,0.0012,0.0012,0.0012,0,0,0.0278,0.0271,0.029,0.0286,0.0277,0.0261,0.0265,0.0243,0.0236,0.0228,0.0194,0.017,0.0136,0.0116,0.01,0.0113,0.0071,0.01,0.0143,0.0105,0.0107,0.0108,0.007,0.0067,0.0104,0.0104,0.0104,0,0.0288,0.0313,0.0293,0.031,0.0314,0.0276,0.0297,0.0283,0.0261,0.0263,0.0236,0.0185,0.0153,0.0145,0.0147,0.0125,0.0094,0.013,0.0112,0.0113,0.0113,0.0073,0.0069,0.0107,0.0107,0.0107,0.0106,0,0.0333,0.035,0.036,0.0371,0.037,0.038,0.0363,0.0362,0.0341,0.0324,0.0307,0.0253,0.0226,0.0205,0.0181,0.0171,0.0145,0.0121,0.0104,0.0119,0.0076,0.0071,0.0112,0.0111,0.011,0.0109,0,0,0.0365,0.0388,0.0393,0.0416,0.0405,0.0416,0.0426,0.043,0.0449,0.04,0.0412,0.0357,0.0321,0.0301,0.0257,0.0221,0.019,0.0179,0.0176,0.015,0.0104,0.0089,0.0082,0.0161,0.0161,0.0161,0.0071,0,0.0407,0.0458,0.0455,0.0502,0.0527,0.0506,0.0523,0.052,0.0503,0.0501,0.0437,0.0423,0.0359,0.0347,0.03,0.0224,0.0181,0.0217,0.0086,0.0082,0.0074,0.0077,0.0113,0.0037,0.0066,0.0065,0.0065,0,0.0456,0.0486,0.0543,0.0583,0.0593,0.0613,0.0643,0.0657,0.0639,0.0623,0.0585,0.053,0.0476,0.0413,0.0287,0.0312,0.0218,0.0146,0.0141,0.0106,0.0059,0.0025,0.0026,0.0056,0.0057,0.0057,0.0058,0,0.0501,0.0551,0.0604,0.0617,0.0649,0.0679,0.0695,0.0697,0.073,0.0705,0.0709,0.0622,0.0588,0.0459,0.0312,0.0298,0.0165,0.0124,0.0017,0.0015,0.001,0.0008,0.0029,0.0029,0.0029,0.0029,0.003,0,0.0553,0.0596,0.0636,0.0667,0.0742,0.0741,0.0814,0.0816,0.0831,0.0881,0.078,0.0786,0.0599,0.0499,0.0345,0.0176,0.0186,0.0031,-0.0006,0.0032,0.0033,0.0023,0.0023,0.0026,0.0027,0.0027,0.0028,0,0.0601,0.0621,0.069,0.0742,0.0769,0.0826,0.09,0.0951,0.0947,0.1007,0.1004,0.0914,0.0783,0.0586,0.0382,0.0235,0.0065,-0.0001,0.0057,0.0029,-0.0074,-0.0069,-0.0135,-0.0136,-0.0137,-0.0138,-0.0138,0,0.063,0.0672,0.0755,0.0805,0.0837,0.0919,0.0981,0.1011,0.1075,0.1096,0.1134,0.1023,0.0967,0.0653,0.0377,0.0103,0.0061,-0.0051,-0.0076,-0.006,-0.0089,-0.0083,-0.0077,-0.0066,-0.0066,-0.0066,-0.0066,0,0.0688,0.0716,0.0777,0.0881,0.096,0.1058,0.115,0.1216,0.1267,0.1314,0.1353,0.1308,0.1012,0.0739,0.0359,0.018,-0.0006,-0.0062,-0.0058,-0.0023,-0.0,-0.0027,-0.0023,-0.0066,-0.0066,-0.0066,-0.0066,-0.0066,0.0732,0.0784,0.0864,0.0968,0.1063,0.1184,0.1272,0.1373,0.1489,0.1564,0.1521,0.1458,0.1141,0.0657,0.0325,-0.0021,-0.0005,-0.0129,-0.0126,-0.0124,-0.0094,-0.0073,-0.0147,-0.0148,-0.0148,-0.0148,-0.0149,0,0.0787,0.0847,0.0942,0.1067,0.1178,0.1223,0.138,0.1472,0.1617,0.1672,0.1701,0.1407,0.1088,0.0712,0.0199,-0.0103,-0.0119,-0.02,-0.0159,-0.0155,-0.0152,-0.0122,-0.0185,-0.0186,-0.0187,-0.0188,0,0,0.0815,0.0912,0.0961,0.1144,0.1237,0.1394,0.1489,0.1623,0.1704,0.1759,0.1723,0.1648,0.1199,0.082,0.0404,0.01,0.0046,0.0049,0.0117,0.0221,0.0226,-0.0068,-0.0012,0,0,0,0,0]}],[{"header":{"parameterUnit":"m.s-1","parameterCategory":2,"la1":30.2991,"la2":30.254,"lo1":-89.0895,"lo2":-89.0444,"dy":0.0017,"dx":0.0017,"nx":28,"ny":28,"refTime":"2024-02-18T03:00:00:Z","depth":"4","parameterNumber":2,"parameterNumberName":"U-component_of_CURRENTS"},"data":[0,0,0,0,0,0,0,0,0,0,0,0,0,0,0,0,0,0,0,0,0,0,0,0,0,0,0,0,0,0,0,0,0,0,0,0,0,0,0,0,0,0,0,0,0,0,0,0,0,0,0,0,0,0,0,0,0,0,0.193,0.1931,0,0.1991,0.1991,0.1992,0.2048,0.2049,0.205,0.2051,0.2128,0.2129,0.2131,0,0,0,0,0,0,0,0,0,0,0,0,0,0.1849,0.185,0.193,0.1931,0.1932,0.1991,0.1991,0.1992,0.2048,0.2049,0.205,0.2051,0.2128,0.2129,0.2131,0,0,0,0,0,0,0,0,0,0,0,0,0,0.1893,0.185,0.193,0.1968,0.1972,0.1991,0.1992,0.1992,0.2048,0.2049,0.2051,0.2052,0.2127,0.2129,0.2131,0.2117,0,0,0.2137,0.2137,0,0,0,0,0,0,0,0,0.189,0.1895,0.1962,0.1966,0.197,0.2015,0.1991,0.2035,0.2048,0.2017,0.2051,0.2052,0.2092,0.2097,0.2103,0.2121,0.2124,0.2137,0.2138,0.2139,0.2139,0,0,0,0,0,0,0,0.1887,0.1893,0.1952,0.1962,0.1968,0.1978,0.1986,0.2,0.2046,0.202,0.2025,0.2034,0.2094,0.2101,0.2105,0.2125,0.2137,0.2138,0.214,0.214,0.2258,0.226,0,0,0,0,0,0,0.1883,0.189,0.195,0.1954,0.1935,0.1979,0.1987,0.1998,0.2045,0.2054,0.2033,0.2036,0.2097,0.2103,0.2108,0.2203,0.2139,0.2141,0.2142,0.2256,0.2259,0.2261,0,0,0,0,0,0,0.188,0.1887,0.1948,0.1925,0.1934,0.1979,0.1991,0.1998,0.2047,0.2055,0.2064,0.2079,0.2098,0.2105,0.2161,0.2202,0.2141,0.2143,0.2254,0.2257,0.226,0.2323,0,0,0,0,0,0,0.1878,0.1886,0.1912,0.1925,0.1935,0.1986,0.199,0.1999,0.2049,0.2056,0.2097,0.2103,0.21,0.2159,0.2163,0.2204,0.2145,0.2251,0.2255,0.2259,0.2318,0.2328,0.2336,0,0,0,0,0,0.1875,0.1896,0.1912,0.1921,0.1962,0.1987,0.1994,0.2028,0.2051,0.2077,0.2111,0.2104,0.2186,0.2162,0.2167,0.2209,0.2249,0.2254,0.2258,0.2314,0.2326,0.2336,0,0,0,0,0,0,0.1876,0.1904,0.1923,0.1954,0.1983,0.1998,0.2032,0.2052,0.2098,0.2119,0.2126,0.2134,0.2202,0.2196,0.217,0.2255,0.2218,0.2223,0.2259,0.2269,0.2278,0.2288,0.2146,0,0,0,0,0,0.1886,0.1915,0.1939,0.1971,0.1989,0.2019,0.2042,0.2066,0.2098,0.2122,0.215,0.2184,0.2215,0.2237,0.2263,0.2304,0.2305,0.2336,0.2345,0.2352,0.2365,0.2397,0.2409,0.2276,0.2275,0.2275,0,0,0.1896,0.1918,0.1936,0.1974,0.2003,0.2031,0.2038,0.2086,0.2123,0.2121,0.2196,0.2221,0.2236,0.2289,0.2317,0.2294,0.2393,0.2358,0.2364,0.2373,0.2403,0.2416,0.2427,0.2279,0.2278,0.2278,0,0,0.1915,0.1952,0.1979,0.2006,0.2055,0.2071,0.2095,0.2136,0.2176,0.2232,0.2251,0.2303,0.2344,0.2368,0.238,0.2452,0.2442,0.2466,0.2514,0.2545,0.2556,0.2565,0.2587,0.2598,0.2464,0.2464,0.2465,0,0.1931,0.1961,0.1992,0.2022,0.2053,0.2093,0.2127,0.2166,0.2225,0.2261,0.2269,0.236,0.2379,0.2441,0.2474,0.2473,0.2486,0.2469,0.2555,0.2565,0.2574,0.2593,0.2604,0.2468,0.2468,0.2467,0.2467,0,0.1952,0.1994,0.2016,0.2066,0.2104,0.2143,0.2192,0.2248,0.2297,0.2328,0.2418,0.2448,0.25,0.2518,0.2521,0.2601,0.2589,0.2565,0.2525,0.2591,0.2607,0.2618,0.2473,0.2472,0.2471,0.247,0,0,0.1936,0.2015,0.2027,0.2061,0.2134,0.216,0.2238,0.2305,0.2365,0.2426,0.2498,0.2564,0.2592,0.2611,0.2629,0.2662,0.2741,0.2651,0.2651,0.2666,0.2813,0.2641,0.2636,0.2734,0.2736,0.2738,0.28,0,0.1948,0.2007,0.2048,0.2114,0.2148,0.2215,0.2281,0.2353,0.2421,0.2502,0.2552,0.263,0.2623,0.267,0.2702,0.2741,0.2773,0.2726,0.2753,0.2754,0.2587,0.2643,0.2745,0.2808,0.281,0.2812,0.2813,0,0.1943,0.1989,0.2053,0.2145,0.2169,0.2221,0.2336,0.2402,0.2516,0.2574,0.2652,0.2697,0.2784,0.2761,0.2844,0.2818,0.2831,0.2842,0.2843,0.2668,0.2601,0.2728,0.2832,0.283,0.2829,0.2828,0.2826,0,0.1896,0.1987,0.2043,0.2073,0.2181,0.224,0.2312,0.2429,0.2497,0.2638,0.2693,0.2788,0.2849,0.2885,0.2916,0.2898,0.2985,0.295,0.2802,0.279,0.2898,0.2887,0.3002,0.3002,0.3002,0.3001,0.3001,0,0.1864,0.1913,0.2033,0.2059,0.2143,0.2233,0.2333,0.2425,0.2552,0.2622,0.2733,0.2789,0.2887,0.2938,0.295,0.2904,0.3009,0.2823,0.2796,0.2923,0.2915,0.2905,0.2893,0.3004,0.3003,0.3003,0.3002,0,0.1791,0.187,0.194,0.2071,0.2119,0.2184,0.2334,0.2394,0.2536,0.2633,0.2684,0.2819,0.2886,0.2945,0.3014,0.2924,0.2916,0.2872,0.302,0.2999,0.2695,0.2686,0.271,0.2705,0.27,0.2696,0.2693,0,0.1752,0.1783,0.1932,0.1977,0.2042,0.2151,0.2218,0.2375,0.2429,0.262,0.264,0.2773,0.2839,0.2781,0.2874,0.2874,0.2839,0.2809,0.2739,0.2695,0.2668,0.2666,0.2663,0.2686,0.2684,0.2683,0.2682,0,0.1678,0.1749,0.1807,0.1904,0.1983,0.2053,0.216,0.2183,0.235,0.2496,0.2528,0.2565,0.263,0.267,0.2687,0.2685,0.2814,0.276,0.2768,0.2702,0.2665,0.2642,0.2645,0.2666,0.2668,0.2669,0.267,0,0.1628,0.1649,0.1737,0.1802,0.1895,0.192,0.1995,0.2045,0.2118,0.2312,0.2325,0.2463,0.2601,0.2574,0.2597,0.2577,0.2535,0.2437,0.2462,0.2481,0.2377,0.2294,0.2165,0,0,0,0,0,0.1564,0.1569,0.1624,0.168,0.1762,0.1815,0.1932,0.2004,0.216,0.2118,0.221,0.2261,0.2297,0.2377,0.231,0.2515,0.2557,0.2427,0.2459,0.2576,0.2594,0.2493,0,0,0,0,0,0,0.1517,0.1565,0.1578,0.1559,0.1571,0.1641,0.171,0.1819,0.1797,0.1965,0.1992,0.2121,0.2188,0.2304,0.2264,0.2288,0.226,0.2521,0.2515,0.2565,0.2582,0.2597,0.2499,0,0,0,0,0]},{"header":{"parameterUnit":"m.s-1","parameterCategory":2,"la1":30.2991,"la2":30.254,"lo1":-89.0895,"lo2":-89.0444,"dy":0.0017,"dx":0.0017,"nx":28,"ny":28,"refTime":"2024-02-18T03:00:00:Z","depth":"4","parameterNumber":3,"parameterNumberName":"V-component_of_CURRENTS"},"data":[0,0,0,0,0,0,0,0,0,0,0,0,0,0,0,0,0,0,0,0,0,0,0,0,0,0,0,0,0,0,0,0,0,0,0,0,0,0,0,0,0,0,0,0,0,0,0,0,0,0,0,0,0,0,0,0,0,0,0.0225,0.0225,0,0.0199,0.0198,0.0198,0.0179,0.0179,0.0179,0.0179,0.0139,0.0138,0.0137,0,0,0,0,0,0,0,0,0,0,0,0,0,0.022,0.0221,0.0225,0.0225,0.0225,0.0199,0.0198,0.0198,0.0179,0.0179,0.0179,0.0179,0.014,0.0138,0.0137,0,0,0,0,0,0,0,0,0,0,0,0,0,0.021,0.0221,0.0225,0.0213,0.0212,0.0199,0.0198,0.0198,0.0179,0.0179,0.0179,0.0179,0.014,0.0139,0.0137,0.0129,0,0,0.0132,0.0132,0,0,0,0,0,0,0,0,0.0211,0.021,0.0215,0.0214,0.0213,0.0193,0.0182,0.0174,0.0179,0.0191,0.0179,0.0179,0.0157,0.0154,0.0148,0.0127,0.0125,0.0132,0.0131,0.0131,0.013,0,0,0,0,0,0,0,0.0212,0.0211,0.0214,0.0215,0.0214,0.0196,0.0194,0.018,0.0173,0.019,0.0189,0.0187,0.0156,0.0149,0.0147,0.0125,0.0132,0.0131,0.013,0.0129,0.0097,0.0098,0,0,0,0,0,0,0.0219,0.0212,0.0215,0.0213,0.0213,0.0196,0.0194,0.0199,0.0174,0.017,0.0187,0.0186,0.0152,0.0148,0.0145,0.0149,0.0131,0.0129,0.0128,0.0097,0.0097,0.0098,0,0,0,0,0,0,0.0219,0.022,0.0216,0.0212,0.0211,0.0197,0.0201,0.0198,0.0197,0.0172,0.0168,0.019,0.0152,0.0147,0.014,0.0147,0.0129,0.0127,0.0097,0.0097,0.0098,0.0146,0,0,0,0,0,0,0.0219,0.022,0.0227,0.0213,0.0211,0.0216,0.0201,0.0198,0.0196,0.0195,0.0173,0.0169,0.0151,0.0142,0.0138,0.0144,0.0126,0.0097,0.0097,0.0097,0.0145,0.0148,0.0151,0,0,0,0,0,0.0219,0.0232,0.0228,0.0228,0.0221,0.0216,0.0214,0.0202,0.0197,0.02,0.0185,0.017,0.014,0.0141,0.0136,0.0142,0.0097,0.0097,0.0097,0.0143,0.0148,0.0151,0,0,0,0,0,0,0.0234,0.0231,0.0226,0.0237,0.023,0.0214,0.0216,0.0207,0.0198,0.0198,0.0173,0.0169,0.0163,0.0145,0.0147,0.0132,0.0115,0.0114,0.0151,0.0155,0.0158,0.0176,0.0125,0,0,0,0,0,0.0241,0.025,0.024,0.0249,0.0248,0.0233,0.023,0.0223,0.0212,0.0207,0.0191,0.0173,0.0158,0.0152,0.0135,0.013,0.0105,0.0129,0.0132,0.0135,0.0146,0.0109,0.011,0.0098,0.0098,0.0098,0,0,0.0249,0.0248,0.0253,0.0253,0.0246,0.0252,0.0231,0.0232,0.0239,0.0204,0.0209,0.0185,0.0159,0.0153,0.0149,0.0141,0.0123,0.0135,0.0138,0.0147,0.0109,0.0111,0.0112,0.0098,0.0098,0.0098,0,0,0.0271,0.027,0.0285,0.0283,0.0279,0.0269,0.0273,0.026,0.0258,0.0255,0.0232,0.0215,0.0194,0.0177,0.0165,0.0176,0.0141,0.0167,0.02,0.0165,0.0166,0.0166,0.0131,0.0128,0.0169,0.017,0.017,0,0.0279,0.0299,0.0287,0.03,0.0306,0.0281,0.0299,0.0291,0.0278,0.0281,0.0264,0.0229,0.0205,0.0198,0.0202,0.0184,0.0158,0.019,0.017,0.017,0.0169,0.0133,0.0129,0.0172,0.0172,0.0171,0.0171,0,0.0312,0.0328,0.0336,0.0347,0.035,0.036,0.035,0.0352,0.0341,0.033,0.0319,0.0279,0.0261,0.0245,0.0229,0.0217,0.0197,0.0178,0.0163,0.0174,0.0134,0.0129,0.0175,0.0175,0.0174,0.0173,0,0,0.0333,0.0355,0.036,0.038,0.0378,0.0388,0.0399,0.0405,0.0422,0.0388,0.0398,0.0359,0.0332,0.0317,0.0284,0.0252,0.0223,0.0222,0.0219,0.0193,0.0144,0.0128,0.012,0.02,0.0199,0.0199,0.0116,0,0.0362,0.0403,0.0405,0.0446,0.0466,0.0457,0.0472,0.0474,0.0465,0.0465,0.0415,0.0408,0.0361,0.0354,0.0313,0.0251,0.0213,0.0247,0.0133,0.0129,0.0119,0.0115,0.0198,0.0112,0.0111,0.011,0.0109,0,0.0394,0.042,0.0468,0.0507,0.0516,0.0537,0.0567,0.0582,0.0569,0.0559,0.053,0.049,0.0445,0.04,0.029,0.0315,0.0239,0.0179,0.0174,0.0142,0.0104,0.0098,0.01,0.0101,0.0101,0.0102,0.0102,0,0.0421,0.0466,0.0513,0.0525,0.0559,0.0589,0.0608,0.0614,0.0642,0.0625,0.0629,0.0557,0.053,0.0424,0.0303,0.0297,0.0174,0.0147,0.0056,0.0053,0.0072,0.0072,0.0065,0.0065,0.0066,0.0066,0.0066,0,0.0452,0.049,0.0536,0.0562,0.0629,0.0637,0.0701,0.0707,0.0722,0.0756,0.0687,0.068,0.0535,0.0446,0.0323,0.0178,0.0185,0.0064,0.0032,0.0093,0.0096,0.0067,0.0069,0.0063,0.0063,0.0064,0.0065,0,0.0476,0.0501,0.0562,0.0617,0.0647,0.0697,0.0773,0.0812,0.0817,0.0857,0.0856,0.0777,0.0655,0.05,0.0326,0.0216,0.0072,0.0017,0.0099,0.0072,-0.0032,-0.0027,-0.0094,-0.0095,-0.0096,-0.0097,-0.0098,0,0.0489,0.0524,0.061,0.0657,0.0691,0.0769,0.0824,0.086,0.0904,0.0914,0.0932,0.0835,0.0757,0.0503,0.0329,0.0086,0.0046,-0.0031,-0.0039,-0.0023,-0.0048,-0.0041,-0.0035,-0.0099,-0.0099,-0.01,-0.01,0,0.0515,0.055,0.0604,0.07,0.0775,0.086,0.094,0.0976,0.1018,0.1024,0.0992,0.086,0.0717,0.0507,0.0319,0.0143,0.0018,-0.0043,-0.0042,-0.005,-0.0031,-0.0052,-0.0045,-0.0104,-0.0103,-0.0103,-0.0103,0,0.0539,0.0579,0.0653,0.0741,0.0837,0.0923,0.0962,0.1011,0.1055,0.106,0.1047,0.089,0.0804,0.0537,0.0365,0.0189,0.0134,0.007,0.0064,0.0065,0.013,0.018,0.0148,0,0,0,0,0,0.0556,0.0605,0.0684,0.0782,0.0877,0.0938,0.1029,0.1058,0.1098,0.1085,0.1069,0.0935,0.0676,0.0564,0.0384,0.0326,0.0093,0.0107,0.0014,-0.0124,-0.0119,-0.0073,0,0,0,0,0,0,0.0566,0.0642,0.0683,0.0804,0.0875,0.0986,0.1047,0.1072,0.1063,0.107,0.0936,0.0882,0.0629,0.0781,0.0379,0.0326,0.0239,-0.0009,-0.0013,-0.0126,-0.0122,-0.0119,-0.0069,0,0,0,0,0]}]]